Regional Weather Roundup
Issued by NWS Green Bay, WI

Home | Current Version | Previous Version | Text Only | Print | Product List | Glossary On
Versions: 1 2 3 4 5 6 7 8 9 10 11 12 13 14 15 16 17 18 19 20 21 22 23 24 25 26 27 28 29 30 31 32 33 34 35 36 37 38 39 40 41 42 43 44 45 46 47 48 49 50
000
ASUS43 KGRB 221059
RWRGRB

NORTH-CENTRAL AND NORTHEAST WISCONSIN REGIONAL WEATHER ROUNDUP
NATIONAL WEATHER SERVICE GREEN BAY WI
600 AM CDT TUE JUL 22 2014

WIZ005-009-010>012-018-019-221200-
NORTH CENTRAL WISCONSIN

CITY           SKY/WX    TMP DP  RH WIND       PRES   REMARKS
IRONWOOD       CLOUDY    72  66  83 S14G21    29.71F
MANITOWISH WTR NOT AVBL
ARBOR VITAE    NOT AVBL
EAGLE RIVER    NOT AVBL
LAND O LAKES   NOT AVBL
RHINELANDER    CLOUDY    72  68  87 SW10      29.87F
PHILLIPS       NOT AVBL
ANTIGO         NOT AVBL
TOMAHAWK       NOT AVBL
MERRILL        NOT AVBL
$$

WIZ013-073-221200-
NORTHEAST WISCONSIN

CITY           SKY/WX    TMP DP  RH WIND       PRES   REMARKS
IRON MOUNTAIN  CLOUDY    71  67  87 SE9       29.86F FOG
MARINETTE      CLOUDY    73  66  78 SW10      29.89S
$$

WIZ017-030-035>037-045-221200-
CENTRAL WISCONSIN

CITY           SKY/WX    TMP DP  RH WIND       PRES   REMARKS
MEDFORD        NOT AVBL
WAUSAU         CLOUDY    73  68  84 S9        29.87S
MOSINEE        PTCLDY    72  70  94 S9        29.89F
MARSHFIELD     MOCLDY    73  68  84 SW10      29.88S
WISC RAPIDS    MOCLDY    75  68  78 S10       29.90S
STEVENS POINT  NOT AVBL
WAUPACA        NOT AVBL
SHAWANO        NOT AVBL
CLINTONVILLE   NOT AVBL
$$

WIZ038-039-048-051-221200-
FOX VALLEY

CITY           SKY/WX    TMP DP  RH WIND       PRES   REMARKS
NWS GREEN BAY  PTCLDY    75  68  78 S13G22    29.91F HAZE
APPLETON       NOT AVBL
OSHKOSH        PTCLDY    73  68  84 S14G23    29.92F HAZE
FOND DU LAC    PTCLDY    73  66  78 S16G23    29.94F
$$

WIZ022-050-052-221200-
EAST CENTRAL WISCONSIN

CITY           SKY/WX    TMP DP  RH WIND       PRES   REMARKS
STURGEON BAY   MOCLDY    66  63  88 S15       29.92F
MANITOWOC      PTCLDY    64  63  94 S7        29.96F FOG
SHEBOYGAN      CLEAR     69  66  90 S9        29.97F
$$

LMZ563-521-522-541>543-221200-
LAKESHORE

STATION/POSITION TIME  TEMP    WIND        PRES    VSBY  WAVE
                       AIR SEA DIR/SP/G                  HT/PER
                 (UTC) (F)     (DEG/KT/KT) (MB)    (MI)  (FT/S)
SHEBOYGAN LKSHOR 1000   68     180/ 16/ 16 1015.0F
KEWAUNEE LKSHORE 1000   56     180/ 14/ 15 1015.0F
NORTHPORT PIER   1000   65     150/  7/ 12 1013.5S
N MID LAKE BUOY  1000   62 56  200/ 14/ 16 1013.6F         2/ 4
CHAMBERS ISLAND  1000   71     150/  8/ 15 1012.5F
MENOMINEE LKSHOR 1000   71     180/ 11/ 15 1013.1F
$$


USA.gov is the U.S. government's official web portal to all federal, state and local government web resources and services.